Location: Castelbiague
(43.0361°N, 0.9246°E)
Time: 14:49:10
(UTC+00:00)

Lacrosse 5 - Pass Details

Date: 17 June 2021
Orbit: 715 x 724 km, 57.0° (Epoch: 28 July)

Event Time Altitude Azimuth Distance (km) Brightness Sun altitude
Rises 20:12:15 0° 313° (NW) 3,125 8.0 -5.8°
Reaches altitude 10° 20:14:38 10° 316° (NW) 2,203 6.2 -6.1°
Maximum altitude 20:19:43 75° 41° (NE) 747 2.0 -6.8°
Drops below altitude 10° 20:24:47 10° 127° (SE) 2,198 3.7 -7.5°
Enters shadow 20:24:57 - 128° (SE) 2,262 3.7 -7.6°
